Regional Weather Roundup
Issued by NWS Little Rock, AR

Home | Current Version | Previous Version | Text Only | Print | Product List | Glossary Off
Versions: 1 2 3 4 5 6 7 8 9 10 11 12 13 14 15 16 17 18 19 20 21 22 23 24 25 26 27 28 29 30 31 32 33 34 35 36 37 38 39 40 41 42 43 44 45 46 47 48 49 50

000
ASUS44 KLZK 230305
RWRLZK

WEATHER ROUNDUP FOR ARKANSAS
NATIONAL WEATHER SERVICE LITTLE ROCK AR
1000 PM CDT WED MAR 22 2017

NOTE: "FAIR" INDICATES FEW OR NO CLOUDS BELOW 12,000 FEET WITH NO
SIGNIFICANT WEATHER AND/OR OBSTRUCTIONS TO VISIBILITY.

ARZ001-003-010-029-230400-
NORTHWEST ARKANSAS

CITY           SKY/WX    TMP DP  RH WIND       PRES   REMARKS
FAYETTEVILLE   CLOUDY    56  44  64 SE8       30.19R
FORT SMITH     CLEAR     57  43  59 E10       30.18R
HARRISON       CLOUDY    51  32  48 SE13G21   30.25R
BENTONVILLE    CLOUDY    55  41  58 SE8       30.19S
ROGERS         CLOUDY    54  42  64 E12       30.20R
SILOAM SPGS    CLOUDY    55  41  58 SE7       30.18R
HIGHFILL       CLOUDY    55  43  63 E9        30.18R
$$

ARZ004-005-016-230400-
NORTH CENTRAL ARKANSAS

CITY           SKY/WX    TMP DP  RH WIND       PRES   REMARKS
BATESVILLE     CLOUDY    52  34  50 E10G16    30.31R
FLIPPIN        CLOUDY    54  28  37 SE10      30.26R
MTN HOME       CLOUDY    52  30  43 SE15      30.27R
$$

ARZ040-041-230400-
WEST CENTRAL ARKANSAS

CITY           SKY/WX    TMP DP  RH WIND       PRES   REMARKS
MENA           CLEAR     61  54  77 E9        30.19R
MOUNT IDA      CLEAR     58  46  64 E6        30.18R
$$

ARZ009-017-025-026-028-230400-
NORTHEAST ARKANSAS

CITY           SKY/WX    TMP DP  RH WIND       PRES   REMARKS
CORNING        CLOUDY    50  36  57 NE10      30.33S
JONESBORO      CLOUDY    50  35  56 NE12      30.30R
NEWPORT        MOCLDY    51  41  68 MISG        N/A
WALNUT RIDGE   PTCLDY    50  36  57 NE9       30.31S
BLYTHEVILLE    CLEAR     50  35  56 NE12      30.31R
$$

ARZ022-023-033-042-044-230400-
CENTRAL ARKANSAS

CITY           SKY/WX    TMP DP  RH WIND       PRES   REMARKS
LITTLE ROCK    PTCLDY    53  42  66 NE13      30.26S
N LITTLE ROCK    N/A     53  41  64 E9        30.27S
CONWAY           N/A     55  39  54 E12       30.25S
SEARCY         MOCLDY    54  38  54 NE12      30.30R
HOT SPRINGS    CLEAR     57  45  64 E13       30.22S
RUSSELLVILLE   CLEAR     54  39  57 E9        30.25R
CLINTON        CLOUDY    48  45  87 CALM      30.29R
$$

ARZ036-230400-
EAST ARKANSAS

CITY           SKY/WX    TMP DP  RH WIND       PRES   REMARKS
WEST MEMPHIS   PTCLDY    52  36  54 NE8       30.27R
$$

ARZ050-053-066-070-073-230400-
SOUTHWEST ARKANSAS

CITY           SKY/WX    TMP DP  RH WIND       PRES   REMARKS
ARKADELPHIA    FAIR      57  49  74 NE5       30.22R
CAMDEN         CLEAR     57  48  72 NE3       30.21R
TEXARKANA      CLEAR     62  51  67 E8        30.16S
EL DORADO      CLEAR     61  51  70 N5        30.19R
DE QUEEN       CLEAR     62  51  67 E13G18    30.15R
$$

ARZ056-057-069-230400-
SOUTHEAST ARKANSAS

CITY           SKY/WX    TMP DP  RH WIND       PRES   REMARKS
PINE BLUFF     CLEAR     57  45  64 NE9       30.24R
STUTTGART      CLEAR     54  37  54 NE9       30.28R
MONTICELLO     CLEAR     59  47  64 NE9       30.22R

$$





USA.gov is the U.S. government's official web portal to all federal, state and local government web resources and services.